Find Starlink 31722

NORAD ID: 59549 Int'l Des: 2024-074 Owner: SPXS Country: US Constellation: starlink operational
LEOCIRCULAR

リアルタイム位置

3D地球を読み込み中...

Starlink 31722について

説明を読み込み中...

次回通過

Passes for default location (London). Set your location on the main map for personalized predictions.

高度履歴

Loading altitude history...

軌道要素

1 59549U 24074R 26124.10159865 .00001357 00000-0 58827-4 0 9999
2 59549 43.0026 30.1769 0001516 272.8945 87.1733 15.27590631114492
Epoch: May 4, 2026 • Age: 10 hours

現在のステータス

高度 486.0 km
速度 7.63 km/s
衛星直下点 38.03°N, 103.56°E
打ち上げ日 Apr 18, 2024
運用期間 2 years
タイプ internet

技術仕様

分類 Payload
質量 730.00 kg
乾燥質量 700.00 kg
総質量 730.00 kg
長さ 0.30 m
直径 4.10 m
スパン 29.00 m
形状 Box + pan
製造者 SPXS
バスタイプ Starlink V2M
フェーズステータス In Orbit
所有者/国 SPXS/US

Most Searched